Year,Month,Day,Hour,Minute,Value (Times are PST for temperature in C)
2019,12,06,00,00,5.90
2019,12,06,00,01,5.80
2019,12,06,00,02,5.80
2019,12,06,00,03,5.90
2019,12,06,00,04,5.80
2019,12,06,00,05,5.80
2019,12,06,00,06,5.80
2019,12,06,00,07,5.80
2019,12,06,00,08,5.80
2019,12,06,00,09,5.80
2019,12,06,00,10,5.80
2019,12,06,00,11,5.80
2019,12,06,00,12,5.80
2019,12,06,00,13,5.80
2019,12,06,00,14,5.80
2019,12,06,00,15,5.80
2019,12,06,00,16,5.80
2019,12,06,00,17,5.80
2019,12,06,00,18,5.80
2019,12,06,00,19,5.80
2019,12,06,00,20,5.80
2019,12,06,00,21,5.80
2019,12,06,00,22,5.80
2019,12,06,00,23,5.80
2019,12,06,00,24,5.80
2019,12,06,00,25,5.80
2019,12,06,00,26,5.80
2019,12,06,00,27,5.80
2019,12,06,00,28,5.80
2019,12,06,00,29,5.80
2019,12,06,00,30,5.80
2019,12,06,00,31,5.80
2019,12,06,00,32,5.80
2019,12,06,00,33,5.80
2019,12,06,00,34,5.80
2019,12,06,00,35,5.80
2019,12,06,00,36,5.80
2019,12,06,00,37,5.80
2019,12,06,00,38,5.80
2019,12,06,00,39,5.80
2019,12,06,00,40,5.80
2019,12,06,00,41,5.80
2019,12,06,00,42,5.80
2019,12,06,00,43,5.80
2019,12,06,00,44,5.80
2019,12,06,00,45,5.80
2019,12,06,00,46,5.80
2019,12,06,00,47,5.80
2019,12,06,00,48,5.80
2019,12,06,00,49,5.80
2019,12,06,00,50,5.80
2019,12,06,00,51,5.80
2019,12,06,00,52,5.80
2019,12,06,00,53,5.80
2019,12,06,00,54,5.80
2019,12,06,00,55,5.80
2019,12,06,00,56,5.80
2019,12,06,00,57,5.80
2019,12,06,00,58,5.80
2019,12,06,00,59,5.80
2019,12,06,01,00,5.80
2019,12,06,01,01,5.80
2019,12,06,01,02,5.80
2019,12,06,01,03,5.80
2019,12,06,01,04,5.80
2019,12,06,01,05,5.80
2019,12,06,01,06,5.80
2019,12,06,01,07,5.80
2019,12,06,01,08,5.80
2019,12,06,01,09,5.80
2019,12,06,01,10,5.80
2019,12,06,01,11,5.80
2019,12,06,01,12,5.80
2019,12,06,01,13,5.80
2019,12,06,01,14,5.80
2019,12,06,01,15,5.80
2019,12,06,01,16,5.80
2019,12,06,01,17,5.80
2019,12,06,01,18,5.80
2019,12,06,01,19,5.80
2019,12,06,01,20,5.80
2019,12,06,01,21,5.90
2019,12,06,01,22,5.90
2019,12,06,01,23,5.90
2019,12,06,01,24,5.90
2019,12,06,01,25,5.90
2019,12,06,01,26,5.90
2019,12,06,01,27,5.90
2019,12,06,01,28,5.90
2019,12,06,01,29,5.90
2019,12,06,01,30,5.90
2019,12,06,01,31,5.90
2019,12,06,01,32,5.90
2019,12,06,01,33,5.90
2019,12,06,01,34,5.90
2019,12,06,01,35,5.90
2019,12,06,01,36,5.90
2019,12,06,01,37,5.90
2019,12,06,01,38,5.90
2019,12,06,01,39,5.90
2019,12,06,01,40,5.90
2019,12,06,01,41,5.90
2019,12,06,01,42,5.90
2019,12,06,01,43,5.90
2019,12,06,01,44,5.90
2019,12,06,01,45,5.90
2019,12,06,01,46,5.90
2019,12,06,01,47,5.90
2019,12,06,01,48,5.90
2019,12,06,01,49,5.90
2019,12,06,01,50,5.90
2019,12,06,01,51,5.90
2019,12,06,01,52,5.90
2019,12,06,01,53,5.90
2019,12,06,01,54,5.90
2019,12,06,01,55,5.90
2019,12,06,01,56,5.90
2019,12,06,01,57,5.90
2019,12,06,01,58,5.90
2019,12,06,01,59,5.90
2019,12,06,02,00,5.90
2019,12,06,02,01,5.90
2019,12,06,02,02,5.90
2019,12,06,02,03,5.90
2019,12,06,02,04,5.90
2019,12,06,02,05,5.90
2019,12,06,02,06,5.90
2019,12,06,02,07,5.90
2019,12,06,02,08,5.90
2019,12,06,02,09,5.90
2019,12,06,02,10,5.90
2019,12,06,02,11,5.90
2019,12,06,02,12,5.90
2019,12,06,02,13,5.90
2019,12,06,02,14,5.90
2019,12,06,02,15,5.90
2019,12,06,02,16,5.90
2019,12,06,02,17,5.90
2019,12,06,02,18,5.90
2019,12,06,02,19,5.90
2019,12,06,02,20,6.00
2019,12,06,02,21,6.00
2019,12,06,02,22,6.00
2019,12,06,02,23,6.00
2019,12,06,02,24,6.00
2019,12,06,02,25,6.00
2019,12,06,02,26,6.00
2019,12,06,02,27,6.00
2019,12,06,02,28,6.00
2019,12,06,02,29,6.00
2019,12,06,02,30,6.00
2019,12,06,02,31,6.00
2019,12,06,02,32,6.00
2019,12,06,02,33,6.00
2019,12,06,02,34,6.00
2019,12,06,02,35,6.00
2019,12,06,02,36,6.00
2019,12,06,02,37,6.00
2019,12,06,02,38,6.00
2019,12,06,02,39,6.00
2019,12,06,02,40,5.90
2019,12,06,02,41,6.00
2019,12,06,02,42,5.90
2019,12,06,02,43,5.90
2019,12,06,02,44,5.90
2019,12,06,02,45,6.00
2019,12,06,02,46,5.90
2019,12,06,02,47,5.90
2019,12,06,02,48,5.90
2019,12,06,02,49,5.90
2019,12,06,02,50,5.90
2019,12,06,02,51,6.00
2019,12,06,02,52,5.90
2019,12,06,02,53,5.90
2019,12,06,02,54,6.00
2019,12,06,02,55,5.90
2019,12,06,02,56,6.00
2019,12,06,02,57,5.90
2019,12,06,02,58,5.90
2019,12,06,02,59,5.90
2019,12,06,03,00,5.90
2019,12,06,03,01,5.90
2019,12,06,03,02,5.90
2019,12,06,03,03,5.90
2019,12,06,03,04,5.90
2019,12,06,03,05,5.90
2019,12,06,03,06,5.90
2019,12,06,03,07,5.90
2019,12,06,03,08,5.90
2019,12,06,03,09,5.90
2019,12,06,03,10,6.00
2019,12,06,03,11,6.00
2019,12,06,03,12,6.00
2019,12,06,03,13,6.00
2019,12,06,03,14,6.00
2019,12,06,03,15,6.00
2019,12,06,03,16,6.00
2019,12,06,03,17,6.00
2019,12,06,03,18,6.00
2019,12,06,03,19,6.10
2019,12,06,03,20,6.00
2019,12,06,03,21,6.10
2019,12,06,03,22,6.10
2019,12,06,03,23,6.10
2019,12,06,03,24,6.10
2019,12,06,03,25,6.10
2019,12,06,03,26,6.10
2019,12,06,03,27,6.10
2019,12,06,03,28,6.10
2019,12,06,03,29,6.10
2019,12,06,03,30,6.10
2019,12,06,03,31,6.10
2019,12,06,03,32,6.10
2019,12,06,03,33,6.10
2019,12,06,03,34,6.10
2019,12,06,03,35,6.10
2019,12,06,03,36,6.10
2019,12,06,03,37,6.10
2019,12,06,03,38,6.10
2019,12,06,03,39,6.10
2019,12,06,03,40,6.10
2019,12,06,03,41,6.10
2019,12,06,03,42,6.10
2019,12,06,03,43,6.10
2019,12,06,03,44,6.10
2019,12,06,03,45,6.10
2019,12,06,03,46,6.10
2019,12,06,03,47,6.10
2019,12,06,03,48,6.10
2019,12,06,03,49,6.10
2019,12,06,03,50,6.10
2019,12,06,03,51,6.10
2019,12,06,03,52,6.10
2019,12,06,03,53,6.10
2019,12,06,03,54,6.10
2019,12,06,03,55,6.10
2019,12,06,03,56,6.10
2019,12,06,03,57,6.10
2019,12,06,03,58,6.10
2019,12,06,03,59,6.10
2019,12,06,04,00,6.20
2019,12,06,04,01,6.20
2019,12,06,04,02,6.20
2019,12,06,04,03,6.20
2019,12,06,04,04,6.20
2019,12,06,04,05,6.20
2019,12,06,04,06,6.20
2019,12,06,04,07,6.10
2019,12,06,04,08,6.10
2019,12,06,04,09,6.10
2019,12,06,04,10,6.10
2019,12,06,04,11,6.10
2019,12,06,04,12,6.10
2019,12,06,04,13,6.10
2019,12,06,04,14,6.10
2019,12,06,04,15,6.10
2019,12,06,04,16,6.10
2019,12,06,04,17,6.10
2019,12,06,04,18,6.10
2019,12,06,04,19,6.10
2019,12,06,04,20,6.10
2019,12,06,04,21,6.10
2019,12,06,04,22,6.10
2019,12,06,04,23,6.10
2019,12,06,04,24,6.10
2019,12,06,04,25,6.10
2019,12,06,04,26,6.10
2019,12,06,04,27,6.10
2019,12,06,04,28,6.10
2019,12,06,04,29,6.10
2019,12,06,04,30,6.10
2019,12,06,04,31,6.10
2019,12,06,04,32,6.10
2019,12,06,04,33,6.10
2019,12,06,04,34,6.10
2019,12,06,04,35,6.10
2019,12,06,04,36,6.10
2019,12,06,04,37,6.10
2019,12,06,04,38,6.10
2019,12,06,04,39,6.10
2019,12,06,04,40,6.10
2019,12,06,04,41,6.10
2019,12,06,04,42,6.10
2019,12,06,04,43,6.10
2019,12,06,04,44,6.10
2019,12,06,04,45,6.10
2019,12,06,04,46,6.10
2019,12,06,04,47,6.10
2019,12,06,04,48,6.10
2019,12,06,04,49,6.10
2019,12,06,04,50,6.00
2019,12,06,04,51,6.00
2019,12,06,04,52,6.00
2019,12,06,04,53,6.00
2019,12,06,04,54,6.00
2019,12,06,04,55,6.00
2019,12,06,04,56,6.00
2019,12,06,04,57,6.00
2019,12,06,04,58,6.00
2019,12,06,04,59,6.00
2019,12,06,05,00,6.00
2019,12,06,05,01,6.00
2019,12,06,05,02,6.00
2019,12,06,05,03,6.00
2019,12,06,05,04,6.00
2019,12,06,05,05,6.00
2019,12,06,05,06,6.00
2019,12,06,05,07,6.00
2019,12,06,05,08,6.00
2019,12,06,05,09,5.90
2019,12,06,05,10,6.00
2019,12,06,05,11,5.90
2019,12,06,05,12,6.00
2019,12,06,05,13,6.00
2019,12,06,05,14,6.00
2019,12,06,05,15,6.00
2019,12,06,05,16,6.00
2019,12,06,05,17,6.00
2019,12,06,05,18,6.00
2019,12,06,05,19,6.00
2019,12,06,05,20,6.00
2019,12,06,05,21,6.00
2019,12,06,05,22,6.00
2019,12,06,05,23,5.90
2019,12,06,05,24,5.90
2019,12,06,05,25,5.90
2019,12,06,05,26,5.90
2019,12,06,05,27,5.90
2019,12,06,05,28,5.90
2019,12,06,05,29,5.90
2019,12,06,05,30,5.90
2019,12,06,05,31,6.00
2019,12,06,05,32,6.00
2019,12,06,05,33,5.90
2019,12,06,05,34,5.90
2019,12,06,05,35,5.90
2019,12,06,05,36,5.90
2019,12,06,05,37,5.90
2019,12,06,05,38,5.90
2019,12,06,05,39,5.90
2019,12,06,05,40,5.90
2019,12,06,05,41,5.90
2019,12,06,05,42,5.90
2019,12,06,05,43,5.90
2019,12,06,10,14,7.00
2019,12,06,10,15,7.10
2019,12,06,10,16,7.10
2019,12,06,10,17,7.10
2019,12,06,10,18,7.10
2019,12,06,10,19,7.10
2019,12,06,10,20,7.10
2019,12,06,10,21,7.10
2019,12,06,10,22,7.10
2019,12,06,10,23,7.10
2019,12,06,10,24,7.10
2019,12,06,10,25,7.10
2019,12,06,10,26,7.10
2019,12,06,10,27,7.20
2019,12,06,10,28,7.20
2019,12,06,10,29,7.20
2019,12,06,10,30,7.20
2019,12,06,10,31,7.20
2019,12,06,10,32,7.20
2019,12,06,10,33,7.20
2019,12,06,10,34,7.20
2019,12,06,10,35,7.20
2019,12,06,10,36,7.20
2019,12,06,10,37,7.20
2019,12,06,10,38,7.20
2019,12,06,10,39,7.20
2019,12,06,10,40,7.30
2019,12,06,10,41,7.30
2019,12,06,10,42,7.30
2019,12,06,10,43,7.30
2019,12,06,10,44,7.30
2019,12,06,10,45,7.30
2019,12,06,10,46,7.30
2019,12,06,10,47,7.30
2019,12,06,10,48,7.30
2019,12,06,10,49,7.30
2019,12,06,10,50,7.30
2019,12,06,10,51,7.30
2019,12,06,10,52,7.30
2019,12,06,10,53,7.30
2019,12,06,10,54,7.30
2019,12,06,10,55,7.30
2019,12,06,10,56,7.30
2019,12,06,10,57,7.30
2019,12,06,10,58,7.30
2019,12,06,10,59,7.40
2019,12,06,11,00,7.40
2019,12,06,11,01,7.40
2019,12,06,11,02,7.40
2019,12,06,11,03,7.40
2019,12,06,11,04,7.40
2019,12,06,11,05,7.40
2019,12,06,11,06,7.40
2019,12,06,11,07,7.40
2019,12,06,11,08,7.40
2019,12,06,11,09,7.40
2019,12,06,11,10,7.40
2019,12,06,11,11,7.50
2019,12,06,11,12,7.50
2019,12,06,11,13,7.50
2019,12,06,11,14,7.50
2019,12,06,11,15,7.60
2019,12,06,11,16,7.60
2019,12,06,11,17,7.60
2019,12,06,11,18,7.60
2019,12,06,11,19,7.60
2019,12,06,11,20,7.60
2019,12,06,11,21,7.60
2019,12,06,11,22,7.60
2019,12,06,11,23,7.70
2019,12,06,11,24,7.70
2019,12,06,11,25,7.70
2019,12,06,11,26,7.70
2019,12,06,11,27,7.70
2019,12,06,11,28,7.70
2019,12,06,11,29,7.70
2019,12,06,11,30,7.70
2019,12,06,11,31,7.70
2019,12,06,11,32,7.80
2019,12,06,11,33,7.80
2019,12,06,11,34,7.80
2019,12,06,11,35,7.80
2019,12,06,11,36,7.80
2019,12,06,11,37,7.80
2019,12,06,11,38,7.80
2019,12,06,11,39,7.80
2019,12,06,11,40,7.90
2019,12,06,11,41,7.90
2019,12,06,11,42,7.90
2019,12,06,11,43,7.90
2019,12,06,11,44,7.90
2019,12,06,11,45,7.90
2019,12,06,11,46,7.90
2019,12,06,11,47,8.00
2019,12,06,11,48,8.00
2019,12,06,11,49,8.00
2019,12,06,11,50,8.10
2019,12,06,11,51,8.10
2019,12,06,11,52,8.10
2019,12,06,11,53,8.10
2019,12,06,11,54,8.10
2019,12,06,11,55,8.10
2019,12,06,11,56,8.10
2019,12,06,11,57,8.10
2019,12,06,11,58,8.10
2019,12,06,11,59,8.10
2019,12,06,12,00,8.10
2019,12,06,12,01,8.10
2019,12,06,12,02,8.10
2019,12,06,12,03,8.10
2019,12,06,12,04,8.10
2019,12,06,12,05,8.20
2019,12,06,12,06,8.20
2019,12,06,12,07,8.20
2019,12,06,12,08,8.20
2019,12,06,12,09,8.20
2019,12,06,12,10,8.20
2019,12,06,12,11,8.20
2019,12,06,12,12,8.20
2019,12,06,12,13,8.20
2019,12,06,12,14,8.20
2019,12,06,12,15,8.30
2019,12,06,12,16,8.30
2019,12,06,12,17,8.20
2019,12,06,12,18,8.20
2019,12,06,12,19,8.30
2019,12,06,12,20,8.30
2019,12,06,12,21,8.30
2019,12,06,12,22,8.30
2019,12,06,12,23,8.30
2019,12,06,12,24,8.30
2019,12,06,12,25,8.30
2019,12,06,12,26,8.30
2019,12,06,12,27,8.30
2019,12,06,12,28,8.30
2019,12,06,12,29,8.30
2019,12,06,12,30,8.20
2019,12,06,12,31,8.20
2019,12,06,12,32,8.20
2019,12,06,12,33,8.20
2019,12,06,12,34,8.20
2019,12,06,12,35,8.20
2019,12,06,12,36,8.20
2019,12,06,12,37,8.20
2019,12,06,12,38,8.20
2019,12,06,12,39,8.20
2019,12,06,12,40,8.20
2019,12,06,12,41,8.20
2019,12,06,12,42,8.20
2019,12,06,12,43,8.20
2019,12,06,12,44,8.20
2019,12,06,12,45,8.30
2019,12,06,12,46,8.30
2019,12,06,12,47,8.30
2019,12,06,12,48,8.30
2019,12,06,12,49,8.30
2019,12,06,12,50,8.30
2019,12,06,12,51,8.30
2019,12,06,12,52,8.30
2019,12,06,12,53,8.30
2019,12,06,12,54,8.30
2019,12,06,12,55,8.30
2019,12,06,12,56,8.30
2019,12,06,12,57,8.30
2019,12,06,12,58,8.30
2019,12,06,12,59,8.30
2019,12,06,13,00,8.30
2019,12,06,13,01,8.30
2019,12,06,13,02,8.30
2019,12,06,13,03,8.40
2019,12,06,13,04,8.40
2019,12,06,13,05,8.40
2019,12,06,13,06,8.40
2019,12,06,13,07,8.40
2019,12,06,13,08,8.40
2019,12,06,13,09,8.30
2019,12,06,13,10,8.30
2019,12,06,13,11,8.30
2019,12,06,13,12,8.30
2019,12,06,13,13,8.30
2019,12,06,13,14,8.30
2019,12,06,13,15,8.30
2019,12,06,13,16,8.30
2019,12,06,13,17,8.30
2019,12,06,13,18,8.30
2019,12,06,13,19,8.30
2019,12,06,13,20,8.30
2019,12,06,13,21,8.30
2019,12,06,13,22,8.20
2019,12,06,13,23,8.20
2019,12,06,13,24,8.20
2019,12,06,13,25,8.20
2019,12,06,13,26,8.20
2019,12,06,13,27,8.20
2019,12,06,13,28,8.20
2019,12,06,13,29,8.10
2019,12,06,13,30,8.10
2019,12,06,13,31,8.10
2019,12,06,13,32,8.10
2019,12,06,13,33,8.10
2019,12,06,13,34,8.10
2019,12,06,13,35,8.10
2019,12,06,13,36,8.10
2019,12,06,13,37,8.10
2019,12,06,13,38,8.00
2019,12,06,13,39,8.00
2019,12,06,13,40,8.00
2019,12,06,13,41,8.00
2019,12,06,13,42,7.90
2019,12,06,13,43,7.90
2019,12,06,13,44,7.90
2019,12,06,13,45,7.90
2019,12,06,13,46,7.90
2019,12,06,13,47,7.90
2019,12,06,13,48,7.90
2019,12,06,13,49,7.90
2019,12,06,13,50,7.90
2019,12,06,13,51,7.90
2019,12,06,13,52,7.90
2019,12,06,13,53,7.90
2019,12,06,13,54,7.90
2019,12,06,13,55,7.90
2019,12,06,13,56,7.90
2019,12,06,13,57,7.90
2019,12,06,13,58,7.90
2019,12,06,13,59,7.90
2019,12,06,14,00,7.90
2019,12,06,14,01,7.90
2019,12,06,14,02,7.90
2019,12,06,14,03,7.90
2019,12,06,14,04,7.90
2019,12,06,14,05,7.90
2019,12,06,14,06,7.80
2019,12,06,14,07,7.80
2019,12,06,14,08,7.80
2019,12,06,14,09,7.80
2019,12,06,14,10,7.80
2019,12,06,14,11,7.80
2019,12,06,14,12,7.80
2019,12,06,14,13,7.80
2019,12,06,14,14,7.80
2019,12,06,14,15,7.80
2019,12,06,14,16,7.80
2019,12,06,14,17,7.80
2019,12,06,14,18,7.80
2019,12,06,14,19,7.80
2019,12,06,14,20,7.80
2019,12,06,14,21,7.80
2019,12,06,14,22,7.80
2019,12,06,14,23,7.80
2019,12,06,14,24,7.80
2019,12,06,14,25,7.80
2019,12,06,14,26,7.80
2019,12,06,14,27,7.80
2019,12,06,14,28,7.80
2019,12,06,14,29,7.80
2019,12,06,14,30,7.80
2019,12,06,14,31,7.80
2019,12,06,14,32,7.80
2019,12,06,14,33,7.80
2019,12,06,14,34,7.80
2019,12,06,14,35,7.80
2019,12,06,14,36,7.80
2019,12,06,14,37,7.80
2019,12,06,14,38,7.80
2019,12,06,14,39,7.80
2019,12,06,14,40,7.80
2019,12,06,14,41,7.80
2019,12,06,14,42,7.80
2019,12,06,14,43,7.80
2019,12,06,14,44,7.80
2019,12,06,14,45,7.80
2019,12,06,14,46,7.80
2019,12,06,14,47,7.80
2019,12,06,14,48,7.80
2019,12,06,14,49,7.80
2019,12,06,14,50,7.70
2019,12,06,14,51,7.70
2019,12,06,14,52,7.70
2019,12,06,14,53,7.70
2019,12,06,14,54,7.70
2019,12,06,14,55,7.70
2019,12,06,14,56,7.70
2019,12,06,14,57,7.70
2019,12,06,14,58,7.70
2019,12,06,14,59,7.70
2019,12,06,15,00,7.70
2019,12,06,15,01,7.70
2019,12,06,15,02,7.70
2019,12,06,15,03,7.70
2019,12,06,15,04,7.70
2019,12,06,15,05,7.70
2019,12,06,15,06,7.70
2019,12,06,15,07,7.70
2019,12,06,15,08,7.70
2019,12,06,15,09,7.70
2019,12,06,15,10,7.70
2019,12,06,15,11,7.70
2019,12,06,15,12,7.70
2019,12,06,15,13,7.70
2019,12,06,15,14,7.70
2019,12,06,15,15,7.70
2019,12,06,15,16,7.70
2019,12,06,15,17,7.70
2019,12,06,15,18,7.70
2019,12,06,15,19,7.70
2019,12,06,15,20,7.70
2019,12,06,15,21,7.70
2019,12,06,15,22,7.70
2019,12,06,15,23,7.70
2019,12,06,15,24,7.70
2019,12,06,15,25,7.70
2019,12,06,15,26,7.70
2019,12,06,15,27,7.70
2019,12,06,15,28,7.70
2019,12,06,15,29,7.70
2019,12,06,15,30,7.70
2019,12,06,15,31,7.70
2019,12,06,15,32,7.70
2019,12,06,15,33,7.70
2019,12,06,15,34,7.70
2019,12,06,15,35,7.70
2019,12,06,15,36,7.70
2019,12,06,15,37,7.70
2019,12,06,15,38,7.70
2019,12,06,15,39,7.70
2019,12,06,15,40,7.70
2019,12,06,15,41,7.70
2019,12,06,15,42,7.70
2019,12,06,15,43,7.70
2019,12,06,15,44,7.70
2019,12,06,15,45,7.70
2019,12,06,15,46,7.70
2019,12,06,15,47,7.70
2019,12,06,15,48,7.70
2019,12,06,15,49,7.70
2019,12,06,15,50,7.70
2019,12,06,15,51,7.70
2019,12,06,15,52,7.70
2019,12,06,15,53,7.70
2019,12,06,15,54,7.70
2019,12,06,15,55,7.70
2019,12,06,15,56,7.70
2019,12,06,15,57,7.70
2019,12,06,15,58,7.60
2019,12,06,15,59,7.60
2019,12,06,16,00,7.60
2019,12,06,16,01,7.60
2019,12,06,16,02,7.60
2019,12,06,16,03,7.60
2019,12,06,16,04,7.60
2019,12,06,16,05,7.60
2019,12,06,16,06,7.60
2019,12,06,16,07,7.60
2019,12,06,16,08,7.60
2019,12,06,16,09,7.60
2019,12,06,16,10,7.60
2019,12,06,16,11,7.60
2019,12,06,16,12,7.60
2019,12,06,16,13,7.60
2019,12,06,16,14,7.60
2019,12,06,16,15,7.60
2019,12,06,16,16,7.60
2019,12,06,16,17,7.60
2019,12,06,16,18,7.60
2019,12,06,16,19,7.60
2019,12,06,16,20,7.60
2019,12,06,16,21,7.50
2019,12,06,16,22,7.50
2019,12,06,16,23,7.50
2019,12,06,16,24,7.50
2019,12,06,16,25,7.50
2019,12,06,16,26,7.50
2019,12,06,16,27,7.50
2019,12,06,16,28,7.50
2019,12,06,16,29,7.50
2019,12,06,16,30,7.50
2019,12,06,16,31,7.50
2019,12,06,16,32,7.50
2019,12,06,16,33,7.50
2019,12,06,16,34,7.50
2019,12,06,16,35,7.50
2019,12,06,16,36,7.50
2019,12,06,16,37,7.50
2019,12,06,16,38,7.50
2019,12,06,16,39,7.50
2019,12,06,16,40,7.40
2019,12,06,16,41,7.40
2019,12,06,16,42,7.40
2019,12,06,16,43,7.40
2019,12,06,16,44,7.40
2019,12,06,16,45,7.40
2019,12,06,16,46,7.40
2019,12,06,16,47,7.40
2019,12,06,16,48,7.40
2019,12,06,16,49,7.40
2019,12,06,16,50,7.40
2019,12,06,16,51,7.40
2019,12,06,16,52,7.40
2019,12,06,16,53,7.40
2019,12,06,16,54,7.40
2019,12,06,16,55,7.40
2019,12,06,16,56,7.40
2019,12,06,16,57,7.40
2019,12,06,16,58,7.40
2019,12,06,16,59,7.40
2019,12,06,17,00,7.40
2019,12,06,17,01,7.40
2019,12,06,17,02,7.40
2019,12,06,17,03,7.40
2019,12,06,17,04,7.40
2019,12,06,17,05,7.40
2019,12,06,17,06,7.40
2019,12,06,17,07,7.40
2019,12,06,17,08,7.40
2019,12,06,17,09,7.40
2019,12,06,17,10,7.40
2019,12,06,17,11,7.40
2019,12,06,17,12,7.40
2019,12,06,17,13,7.40
2019,12,06,17,14,7.40
2019,12,06,17,15,7.40
2019,12,06,17,16,7.40
2019,12,06,17,17,7.40
2019,12,06,17,18,7.30
2019,12,06,17,19,7.40
2019,12,06,17,20,7.40
2019,12,06,17,21,7.30
2019,12,06,17,22,7.40
2019,12,06,17,23,7.40
2019,12,06,17,24,7.40
2019,12,06,17,25,7.30
2019,12,06,17,26,7.30
2019,12,06,17,27,7.30
2019,12,06,17,28,7.30
2019,12,06,17,29,7.30
2019,12,06,17,30,7.30
2019,12,06,17,31,7.30
2019,12,06,17,32,7.30
2019,12,06,17,33,7.30
2019,12,06,17,34,7.30
2019,12,06,17,35,7.30
2019,12,06,17,36,7.30
2019,12,06,17,37,7.30
2019,12,06,17,38,7.30
2019,12,06,17,39,7.30
2019,12,06,17,40,7.30
2019,12,06,17,41,7.30
2019,12,06,17,42,7.30
2019,12,06,17,43,7.30
2019,12,06,17,44,7.30
2019,12,06,17,45,7.30
2019,12,06,17,46,7.30
2019,12,06,17,47,7.30
2019,12,06,17,48,7.30
2019,12,06,17,49,7.30
2019,12,06,17,50,7.30
2019,12,06,17,51,7.30
2019,12,06,17,52,7.30
2019,12,06,17,53,7.30
2019,12,06,17,54,7.30
2019,12,06,17,55,7.30
2019,12,06,17,56,7.30
2019,12,06,17,57,7.30
2019,12,06,17,58,7.30
2019,12,06,17,59,7.30
2019,12,06,18,00,7.30
2019,12,06,18,01,7.30
2019,12,06,18,02,7.30
2019,12,06,18,03,7.30
2019,12,06,18,04,7.30
2019,12,06,18,05,7.30
2019,12,06,18,06,7.30
2019,12,06,18,07,7.30
2019,12,06,18,08,7.30
2019,12,06,18,09,7.30
2019,12,06,18,10,7.30
2019,12,06,18,11,7.30
2019,12,06,18,12,7.30
2019,12,06,18,13,7.30
2019,12,06,18,14,7.30
2019,12,06,18,15,7.30
2019,12,06,18,16,7.30
2019,12,06,18,17,7.30
2019,12,06,18,18,7.30
2019,12,06,18,19,7.30
2019,12,06,18,20,7.20
2019,12,06,18,21,7.20
2019,12,06,18,22,7.20
2019,12,06,18,23,7.20
2019,12,06,18,24,7.20
2019,12,06,18,25,7.30
2019,12,06,18,26,7.30
2019,12,06,18,27,7.20
2019,12,06,18,28,7.20
2019,12,06,18,29,7.20
2019,12,06,18,30,7.20
2019,12,06,18,31,7.30
2019,12,06,18,32,7.20
2019,12,06,18,33,7.30
2019,12,06,18,34,7.30
2019,12,06,18,35,7.30
2019,12,06,18,36,7.30
2019,12,06,18,37,7.30
2019,12,06,18,38,7.30
2019,12,06,18,39,7.30
2019,12,06,18,40,7.30
2019,12,06,18,41,7.30
2019,12,06,18,42,7.20
2019,12,06,18,43,7.20
2019,12,06,18,44,7.20
2019,12,06,18,45,7.20
2019,12,06,18,46,7.20
2019,12,06,18,47,7.20
2019,12,06,18,48,7.20
2019,12,06,18,49,7.20
2019,12,06,18,50,7.20
2019,12,06,18,51,7.20
2019,12,06,18,52,7.20
2019,12,06,18,53,7.20
2019,12,06,18,54,7.20
2019,12,06,18,55,7.20
2019,12,06,18,56,7.20
2019,12,06,18,57,7.20
2019,12,06,18,58,7.20
2019,12,06,18,59,7.20
2019,12,06,19,00,7.20
2019,12,06,19,01,7.20
2019,12,06,19,02,7.20
2019,12,06,19,03,7.20
2019,12,06,19,04,7.20
2019,12,06,19,05,7.20
2019,12,06,19,06,7.20
2019,12,06,19,07,7.20
2019,12,06,19,08,7.20
2019,12,06,19,09,7.20
2019,12,06,19,10,7.20
2019,12,06,19,11,7.20
2019,12,06,19,12,7.20
2019,12,06,19,13,7.20
2019,12,06,19,14,7.20
2019,12,06,19,15,7.20
2019,12,06,19,16,7.20
2019,12,06,19,17,7.20
2019,12,06,19,18,7.20
2019,12,06,19,19,7.20
2019,12,06,19,20,7.20
2019,12,06,19,21,7.20
2019,12,06,19,22,7.20
2019,12,06,19,23,7.20
2019,12,06,19,24,7.30
2019,12,06,19,25,7.20
2019,12,06,19,26,7.20
2019,12,06,19,27,7.20
2019,12,06,19,28,7.20
2019,12,06,19,29,7.20
2019,12,06,19,30,7.30
2019,12,06,19,31,7.30
2019,12,06,19,32,7.30
2019,12,06,19,33,7.30
2019,12,06,19,34,7.30
2019,12,06,19,35,7.30
2019,12,06,19,36,7.30
2019,12,06,19,37,7.30
2019,12,06,19,38,7.30
2019,12,06,19,39,7.30
2019,12,06,19,40,7.30
2019,12,06,19,41,7.30
2019,12,06,19,42,7.30
2019,12,06,19,43,7.30
2019,12,06,19,44,7.30
2019,12,06,19,45,7.30
2019,12,06,19,46,7.20
2019,12,06,19,47,7.20
2019,12,06,19,48,7.20
2019,12,06,19,49,7.20
2019,12,06,19,50,7.20
2019,12,06,19,51,7.20
2019,12,06,19,52,7.30
2019,12,06,19,53,7.30
2019,12,06,19,54,7.20
2019,12,06,19,55,7.20
2019,12,06,19,56,7.30
2019,12,06,19,57,7.30
2019,12,06,19,58,7.30
2019,12,06,19,59,7.30
2019,12,06,20,00,7.20
2019,12,06,20,01,7.20
2019,12,06,20,02,7.20
2019,12,06,20,03,7.20
2019,12,06,20,04,7.20
2019,12,06,20,05,7.20
2019,12,06,20,06,7.20
2019,12,06,20,07,7.20
2019,12,06,20,08,7.20
2019,12,06,20,09,7.20
2019,12,06,20,10,7.20
2019,12,06,20,11,7.20
2019,12,06,20,12,7.20
2019,12,06,20,13,7.20
2019,12,06,20,14,7.20
2019,12,06,20,15,7.20
2019,12,06,20,16,7.20
2019,12,06,20,17,7.20
2019,12,06,20,18,7.20
2019,12,06,20,19,7.20
2019,12,06,20,20,7.20
2019,12,06,20,21,7.20
2019,12,06,20,22,7.20
2019,12,06,20,23,7.20
2019,12,06,20,24,7.20
2019,12,06,20,25,7.20
2019,12,06,20,26,7.20
2019,12,06,20,27,7.20
2019,12,06,20,28,7.30
2019,12,06,20,29,7.30
2019,12,06,20,30,7.30
2019,12,06,20,31,7.30
2019,12,06,20,32,7.30
2019,12,06,20,33,7.30
2019,12,06,20,34,7.30
2019,12,06,20,35,7.30
2019,12,06,20,36,7.30
2019,12,06,20,37,7.30
2019,12,06,20,38,7.30
2019,12,06,20,39,7.20
2019,12,06,20,40,7.20
2019,12,06,20,41,7.20
2019,12,06,20,42,7.20
2019,12,06,20,43,7.20
2019,12,06,20,44,7.20
2019,12,06,20,45,7.20
2019,12,06,20,46,7.20
2019,12,06,20,47,7.20
2019,12,06,20,48,7.20
2019,12,06,20,49,7.20
2019,12,06,20,50,7.20
2019,12,06,20,51,7.20
2019,12,06,20,52,7.20
2019,12,06,20,53,7.20
2019,12,06,20,54,7.20
2019,12,06,20,55,7.20
2019,12,06,20,56,7.20
2019,12,06,20,57,7.20
2019,12,06,20,58,7.20
2019,12,06,20,59,7.20
2019,12,06,21,00,7.20
2019,12,06,21,01,7.20
2019,12,06,21,02,7.20
2019,12,06,21,03,7.20
2019,12,06,21,04,7.10
2019,12,06,21,05,7.10
2019,12,06,21,06,7.10
2019,12,06,21,07,7.10
2019,12,06,21,08,7.10
2019,12,06,21,09,7.10
2019,12,06,21,10,7.10
2019,12,06,21,11,7.10
2019,12,06,21,12,7.10
2019,12,06,21,13,7.10
2019,12,06,21,14,7.00
2019,12,06,21,15,7.00
2019,12,06,21,16,7.00
2019,12,06,21,17,7.00
2019,12,06,21,18,7.00
2019,12,06,21,19,6.90
2019,12,06,21,20,6.90
2019,12,06,21,21,6.90
2019,12,06,21,22,6.90
2019,12,06,21,23,6.90
2019,12,06,21,24,6.90
2019,12,06,21,25,6.90
2019,12,06,21,26,6.90
2019,12,06,21,27,6.90
2019,12,06,21,28,6.80
2019,12,06,21,29,6.80
2019,12,06,21,30,6.80
2019,12,06,21,31,6.80
2019,12,06,21,32,6.80
2019,12,06,21,33,6.80
2019,12,06,21,34,6.80
2019,12,06,21,35,6.80
2019,12,06,21,36,6.80
2019,12,06,21,37,6.80
2019,12,06,21,38,6.80
2019,12,06,21,39,6.80
2019,12,06,21,40,6.80
2019,12,06,21,41,6.80
2019,12,06,21,42,6.80
2019,12,06,21,43,6.80
2019,12,06,21,44,6.80
2019,12,06,21,45,6.80
2019,12,06,21,46,6.80
2019,12,06,21,47,6.80
2019,12,06,21,48,6.80
2019,12,06,21,49,6.80
2019,12,06,21,50,6.80
2019,12,06,21,51,6.90
2019,12,06,21,52,6.90
2019,12,06,21,53,6.90
2019,12,06,21,54,6.90
2019,12,06,21,55,6.90
2019,12,06,21,56,6.90
2019,12,06,21,57,6.90
2019,12,06,21,58,6.80
2019,12,06,21,59,6.80
2019,12,06,22,00,6.80
2019,12,06,22,01,6.80
2019,12,06,22,02,6.80
2019,12,06,22,03,6.80
2019,12,06,22,04,6.80
2019,12,06,22,05,6.80
2019,12,06,22,06,6.80
2019,12,06,22,07,6.80
2019,12,06,22,08,6.80
2019,12,06,22,09,6.80
2019,12,06,22,10,6.70
2019,12,06,22,11,6.70
2019,12,06,22,12,6.70
2019,12,06,22,13,6.70
2019,12,06,22,14,6.70
2019,12,06,22,15,6.70
2019,12,06,22,16,6.70
2019,12,06,22,17,6.80
2019,12,06,22,18,6.80
2019,12,06,22,19,6.80
2019,12,06,22,20,6.80
2019,12,06,22,21,6.80
2019,12,06,22,22,6.80
2019,12,06,22,23,6.80
2019,12,06,22,24,6.80
2019,12,06,22,25,6.80
2019,12,06,22,26,6.80
2019,12,06,22,27,6.80
2019,12,06,22,28,6.80
2019,12,06,22,29,6.80
2019,12,06,22,30,6.80
2019,12,06,22,31,6.80
2019,12,06,22,32,6.80
2019,12,06,22,33,6.80
2019,12,06,22,34,6.80
2019,12,06,22,35,6.80
2019,12,06,22,36,6.80